Location: Grand Rapids
(42.9630°N, 85.6680°W)
Time: 01:53:32
(UTC-04:00)

S-56A Canister/Altair - Pass Details

Date: 03 June 2024
Orbit: 637 x 2489 km, 38.9° (Epoch: 21 June)

Event Time Altitude Azimuth Distance (km) Brightness Sun altitude
Rises 06:19:17 0° 260° (W) 6,144 11.5 1.4°
Reaches altitude 10° 06:23:19 10° 259° (W) 5,147 11.1 2.0°
Maximum altitude 06:38:16 75° 178° (S) 2,297 10.0 4.4°
Drops below altitude 10° 06:49:49 10° 96° (E) 4,083 12.4 6.3°
Sets 06:52:38 0° 95° (E) 4,854 12.8 6.8°
